Wetbulb
41.18 41.73 42.26 42.55 42.58 42.38 42.70 42.57 42.67 42.64 42.69 41.77 41.94 41.19 41.23 40.83 40.71 32.79 29.05 36.66 27.94 16.37 19.56 22.48 26.36 18.56 18.24 19.69 13.06 17.05 15.78 16.94 17.18 9.42 9.81 6.19 0.87 3.44 4.46 4.08 2.36 -0.76 -4.28 -2.32 4.70 1.59 -1.82 9.86 10.29 2.95 8.24 12.97 13.16 13.35
41.16 41.60 41.61 41.86 42.23 42.07 42.79 42.36 42.45 42.25 42.34 42.22 41.52 41.33 40.95 40.38 40.35 34.85 25.06 31.98 36.29 29.08 23.44 27.91 29.30 32.58 28.95 25.13 22.68 19.98 17.90 16.51 19.80 13.25 10.26 9.57 10.72 6.36 1.89 -2.24 4.92 0.40 -3.38 -3.07 -2.75 -2.77 9.29 11.85 9.21 12.88 13.62 11.63 12.12 12.86
41.11 40.79 41.35 41.52 42.04 42.32 42.71 42.28 42.38 42.31 42.09 42.15 41.27 41.30 40.27 40.31 40.01 36.10 27.62 29.10 31.54 25.94 22.78 21.41 22.50 27.29 29.28 27.49 27.88 15.92 19.60 21.12 16.47 17.56 10.86 11.86 7.54 11.28 7.32 1.68 1.28 2.58 2.42 -4.15 1.49 4.22 5.31 9.62 11.44 11.73 12.65 12.38 13.44 14.06
41.66 41.48 41.73 41.69 41.50 41.81 42.15 41.74 41.94 42.00 41.91 41.73 41.58 41.12 39.78 40.12 39.07 36.38 28.97 29.50 27.60 26.76 19.35 18.66 26.68 24.74 26.29 25.51 25.79 25.17 23.44 24.02 21.93 23.59 9.46 8.91 7.14 10.96 1.69 4.09 1.25 1.09 2.80 -4.39 -3.14 -0.36 5.23 8.32 7.76 8.96 9.71 12.38 12.44 13.37
41.19 41.77 41.97 41.19 41.25 41.83 42.04 41.60 41.42 41.50 41.48 41.37 41.14 40.75 39.80 39.23 38.34 32.44 29.02 31.74 33.11 24.96 17.62 18.95 22.14 22.80 22.94 23.56 23.44 23.30 22.39 17.80 15.44 11.20 11.81 7.81 10.73 8.11 5.59 4.45 -2.10 1.06 -1.77 -3.61 -5.62 0.90 0.98 1.84 0.82 8.28 5.40 7.23 8.79 11.17
40.93 41.30 41.45 41.59 41.38 41.34 41.83 41.47 41.10 41.09 40.84 40.89 40.36 40.54 39.65 38.71 37.02 29.77 26.18 30.40 32.08 30.04 19.04 14.27 25.43 21.42 20.92 21.36 20.59 19.70 19.23 14.79 6.94 4.93 6.07 3.37 10.72 8.49 -1.87 -5.58 2.21 5.48 5.71 2.76 0.23 0.99 0.63 3.38 1.13 0.61 0.42 2.53 5.08 5.56
40.67 41.01 41.32 41.55 42.08 41.13 41.18 41.56 41.13 40.43 40.44 40.31 40.04 39.81 39.17 38.46 31.24 26.60 22.84 27.76 35.17 31.26 23.79 16.71 17.32 19.82 19.21 20.06 19.73 17.06 14.09 3.13 6.54 -3.97 2.44 3.66 4.69 6.36 -4.28 -6.70 2.27 4.10 4.46 3.68 4.53 2.54 2.31 2.03 2.59 4.13 -0.66 3.01 4.63 2.11
40.65 41.15 41.22 41.27 41.98 41.36 40.87 41.00 39.98 39.53 39.74 39.84 39.45 38.18 37.78 37.84 35.85 29.95 28.84 33.73 31.36 25.47 20.92 9.18 11.50 13.74 17.16 13.47 12.07 19.55 4.94 4.44 6.71 -2.91 0.77 0.54 5.67 4.21 -5.81 -1.34 1.12 4.49 6.47 6.33 5.02 3.84 3.74 5.29 5.71 5.53 3.54 2.06 4.02 2.06
40.66 40.66 40.79 41.45 41.50 40.70 40.35 39.09 38.86 39.06 39.21 38.33 36.29 37.14 33.20 29.37 27.33 24.86 32.58 29.73 26.50 23.24 9.95 9.04 7.01 6.05 15.68 14.61 17.19 15.91 14.23 7.12 8.19 -0.64 -2.38 4.40 0.18 -4.95 -0.79 0.36 2.44 2.83 0.51 1.50 2.06 6.29 6.78 6.43 8.70 9.20 7.43 5.78 3.00 4.28
40.34 40.26 41.01 41.25 40.29 39.97 39.24 38.47 38.63 38.54 37.14 33.95 28.66 26.18 20.98 22.61 32.27 33.47 24.66 19.62 17.32 17.72 16.11 9.44 11.46 6.23 11.62 12.12 12.36 12.77 11.49 6.33 -2.73 0.13 3.36 -5.26 -7.87 -2.17 -1.41 1.43 2.15 3.49 2.43 4.18 2.12 4.40 7.37 7.13 8.90 8.62 7.72 8.32 9.20 9.32
40.35 40.89 40.85 39.66 39.19 38.59 38.46 38.35 38.45 37.06 33.80 23.83 19.87 18.86 23.20 28.75 22.51 18.16 11.69 8.30 10.01 3.31 10.49 9.62 9.38 6.53 14.14 5.76 8.45 12.46 5.14 5.95 -4.39 3.55 0.13 -8.46 -8.98 -0.93 4.02 4.71 7.29 9.38 10.47 10.33 9.35 10.49 10.02 9.15 9.41 8.52 9.06 10.32 10.48 10.69
41.02 40.18 39.38 38.71 37.57 37.31 37.53 38.03 37.19 29.45 26.04 26.10 25.29 23.34 21.19 16.30 10.96 4.41 0.96 9.17 5.31 3.16 10.07 8.67 8.99 10.43 11.56 16.96 11.08 8.62 4.36 3.89 -6.71 7.00 -2.83 -11.07 -2.57 1.58 6.34 6.78 7.59 8.68 9.37 8.71 9.09 8.36 8.37 9.87 9.32 9.07 9.34 9.62 9.76 10.35
39.26 38.96 38.09 37.17 36.73 37.24 36.95 36.41 35.27 33.11 28.88 21.88 16.77 6.22 8.35 5.97 1.26 -0.18 -0.38 1.13 2.75 10.14 10.22 8.58 5.77 10.67 13.88 14.51 7.74 6.89 0.21 -1.89 6.81 -4.84 -6.42 -4.92 3.08 6.87 7.27 8.54 8.53 9.06 8.79 8.14 8.03 8.61 8.55 8.94 9.00 8.31 8.41 9.44 9.29 8.78
38.40 37.69 36.59 35.87 36.45 36.39 35.31 34.13 32.20 28.01 19.54 8.01 1.38 0.15 -2.77 0.00 4.43 4.39 4.38 5.87 11.11 10.40 8.94 9.32 7.52 8.84 10.32 7.04 7.37 0.59 3.49 2.78 -8.19 -10.37 -9.51 -3.33 2.32 6.45 8.68 8.93 7.92 7.36 7.96 7.02 7.03 7.34 7.34 7.55 7.61 7.20 8.40 8.23 7.79 7.59
37.44 36.26 34.79 34.38 35.60 34.12 33.25 31.41 30.02 21.90 15.34 0.42 3.55 -1.23 3.95 8.91 8.84 9.34 9.64 8.40 9.93 11.22 9.88 8.19 8.77 8.03 4.06 2.74 5.16 3.01 -3.74 -7.09 -3.69 -4.88 0.48 3.90 6.58 7.47 7.50 7.82 7.69 7.44 7.91 6.72 6.95 5.54 6.21 7.38 6.56 5.05 6.84 7.24 7.41 7.90
36.09 32.67 30.16 35.32 34.79 31.98 30.65 26.36 21.39 17.76 5.03 1.18 4.00 4.16 9.34 7.06 3.84 5.21 4.19 2.86 9.67 8.89 11.12 8.12 0.93 -2.54 -2.21 1.26 -2.91 -4.06 -6.62 -8.00 -3.24 2.13 5.01 5.90 5.99 6.41 6.52 7.06 7.07 7.81 8.51 7.86 7.95 7.60 8.28 8.09 6.51 5.30 6.64 7.19 6.86 6.89
32.77 26.52 33.52 34.08 33.08 29.16 28.50 19.09 14.71 1.48 0.23 -0.21 1.72 9.24 7.40 4.21 -1.07 2.98 4.57 4.81 7.64 4.45 -3.05 -0.25 -7.60 -4.96 0.78 -5.42 -5.58 -0.36 -4.59 -0.35 3.64 4.63 6.22 7.63 6.01 6.18 6.08 6.82 7.18 8.23 8.15 8.19 8.31 8.80 8.57 8.99 6.05 6.11 4.83 7.43 7.62 7.66
25.38 27.51 33.02 32.40 27.53 23.51 16.89 12.90 3.04 0.02 -3.80 -1.33 3.33 4.53 6.74 6.31 3.04 2.70 5.47 6.83 5.47 5.27 2.48 -6.76 -0.33 -7.18 -7.32 -10.58 -5.58 0.44 3.44 5.44 6.19 5.62 6.47 7.76 7.88 6.63 7.25 6.35 7.64 8.08 7.38 8.14 8.36 8.48 8.55 7.26 7.27 8.51 9.08 9.69 7.72 6.59
28.18 28.87 31.55 30.28 24.51 14.38 6.62 5.96 5.27 -1.49 -0.11 5.68 7.37 7.45 6.59 5.63 6.72 7.04 6.80 7.83 7.10 6.05 -2.19 -9.64 -10.83 -9.95 -2.48 1.85 0.98 2.89 4.35 4.38 2.76 4.40 6.62 7.53 7.83 6.56 6.32 6.76 6.81 6.12 5.42 5.17 6.08 7.78 9.07 9.56 9.15 9.36 9.65 10.34 7.97 8.30
30.95 30.91 29.63 27.06 23.08 7.01 1.77 0.57 3.04 -0.38 -4.79 3.11 6.35 1.61 4.15 4.38 6.33 5.14 5.16 5.87 2.45 -7.88 -8.79 -9.62 -2.23 1.05 1.88 4.62 6.06 5.37 6.07 5.87 4.32 2.33 3.68 5.49 7.69 6.04 5.92 5.10 4.86 5.24 4.34 4.58 4.52 10.42 5.49 5.47 7.49 7.94 8.84 10.30 6.77 6.97
25.27 25.20 24.22 17.06 5.83 2.13 -3.82 -8.94 0.09 -1.12 0.01 1.59 4.45 6.67 -2.57 -2.80 -4.75 -6.25 -4.74 2.79 -7.01 -10.75 -4.68 2.01 2.90 5.20 8.62 8.84 8.60 8.10 6.69 5.84 4.03 3.08 2.21 2.37 6.32 5.02 4.77 4.62 3.55 -0.57 -3.30 -1.63 1.31 3.13 5.42 2.66 4.99 7.18 7.30 7.99 7.32 6.94
19.71 23.29 6.79 11.26 0.56 -3.59 -3.28 -4.37 0.11 3.19 0.57 -2.43 -3.42 -3.43 -15.43 -13.38 -15.03 -12.71 -5.37 -9.91 -8.54 1.04 3.42 3.61 4.73 5.68 6.16 5.82 6.98 7.94 8.06 7.29 6.67 6.25 7.60 6.57 2.96 2.93 2.94 4.06 4.14 0.53 0.89 0.81 2.77 3.42 4.55 5.42 6.83 9.45 8.12 6.28 6.99 5.61
19.10 14.62 1.22 1.60 0.92 -2.51 -5.98 -3.29 -5.48 -7.37 -2.89 -5.58 -8.09 -12.16 -14.14 -12.83 -12.03 -4.85 -13.09 -7.27 3.52 7.73 7.97 6.51 6.63 7.62 6.50 6.59 7.21 6.65 7.19 5.46 2.99 2.79 3.52 2.36 2.03 3.80 4.48 4.41 4.75 1.88 1.37 3.05 4.52 4.57 4.83 9.76 8.43 8.69 8.23 4.95 4.18 3.42
13.15 -3.86 -7.14 -11.08 -7.08 -10.62 -13.32 -11.62 -11.72 -10.64 -13.19 -12.97 -18.82 -15.32 -13.29 -11.87 -9.12 -14.03 -15.52 -1.04 5.39 7.83 6.09 5.20 4.24 3.13 4.24 3.80 1.70 3.00 4.49 4.45 3.03 3.13 3.63 0.75 0.24 0.43 2.53 2.91 1.39 1.61 3.24 3.91 3.67 4.12 4.62 5.41 9.82 6.46 4.86 3.12 1.77 0.93
2.03 -3.12 -6.30 -10.74 -17.46 -10.08 -14.44 -14.26 -15.33 -10.26 -16.44 -17.91 -18.22 -15.73 -13.55 -15.85 -18.20 -21.23 -14.03 -3.16 1.09 -0.54 4.63 3.84 3.09 2.83 0.41 -3.91 0.66 2.20 5.63 4.93 1.83 0.78 2.61 2.96 2.84 2.86 1.99 2.36 1.36 1.95 4.59 2.72 2.71 4.33 4.68 5.22 5.07 4.48 3.34 3.32 0.75 -0.07
-8.45 -10.47 -9.21 -14.30 -10.86 -9.49 -12.41 -14.88 -17.49 -18.02 -19.56 -17.42 -17.09 -16.53 -20.87 -18.79 -18.84 -17.29 -9.37 -1.58 1.80 1.90 3.92 3.43 1.55 0.89 1.60 3.22 2.33 2.59 4.37 6.31 4.12 0.70 3.00 2.86 3.20 1.06 -2.96 -2.75 -1.56 3.03 7.70 8.39 7.22 5.01 4.55 5.11 4.49 1.67 1.76 3.58 9.77 2.78
-9.09 -10.66 -5.64 4.60 0.17 -2.48 -6.57 -8.55 -9.58 -12.80 -20.43 -17.37 -16.35 -16.42 -18.99 -20.45 -20.13 -8.28 -1.34 4.71 3.69 5.12 6.07 4.71 3.42 2.33 2.58 3.15 4.83 5.69 6.03 5.34 2.78 3.58 5.34 5.14 5.53 5.65 4.49 1.14 1.78 6.38 9.42 9.05 8.89 8.26 7.11 7.31 7.19 6.61 5.98 4.86 2.75 0.19
-7.10 -5.31 -8.92 -10.01 -8.90 -7.79 -14.70 -17.51 -18.16 -16.77 -13.88 -4.81 -4.47 -14.88 -15.64 -12.38 -8.16 -1.57 1.43 2.87 3.79 2.94 1.82 3.93 4.19 4.82 4.38 4.47 5.00 4.76 4.08 3.53 4.25 3.79 5.62 7.87 7.60 4.35 5.44 7.00 8.00 13.98 14.09 11.34 12.22 12.64 11.21 9.83 9.04 8.79 6.18 2.49 1.65 -2.21
-8.42 -3.79 -2.92 -13.45 -16.17 -15.52 -15.97 -12.93 -11.50 -6.90 -0.28 -4.65 -10.71 -9.30 -9.16 -0.88 -0.76 -0.44 3.91 6.60 1.92 2.15 3.27 4.06 4.78 3.74 4.17 5.19 6.23 5.26 3.77 2.07 -2.22 -1.52 -1.22 0.76 3.01 5.65 8.45 9.81 9.67 9.83 10.41 10.63 14.53 14.73 13.48 14.07 10.86 4.18 2.43 1.36 2.33 -5.24
-10.34 -7.71 -11.20 -20.77 -13.34 -10.89 -10.34 -8.76 -11.51 -11.26 -4.25 -2.67 -2.10 -2.99 -2.54 -3.33 -3.24 0.31 2.84 3.73 5.42 3.82 4.03 2.77 3.23 0.90 1.22 1.40 2.22 4.49 5.85 2.95 1.84 -0.38 -1.03 0.79 3.30 7.40 8.30 8.38 9.40 10.40 10.67 9.72 7.99 6.70 11.54 7.37 5.84 2.74 2.25 1.53 1.51 0.52
-9.93 -13.40 -14.42 -14.81 -12.96 -13.90 -15.59 -16.71 -18.93 -9.24 -14.06 -16.53 -14.72 -10.57 -8.38 -10.04 -4.91 -3.05 0.04 1.75 3.50 3.50 3.75 4.29 5.09 5.15 3.81 4.26 3.40 2.26 2.64 5.61 6.28 7.74 8.53 9.34 9.53 9.79 10.28 9.94 10.50 8.81 6.00 5.62 4.97 3.92 2.17 1.51 1.24 -0.01 -0.58 -0.85 -1.24 -0.79
-11.74 -19.58 -14.15 -11.46 -12.62 -16.37 -20.50 -20.94 -21.73 -17.66 -20.01 -16.68 -13.26 -19.52 -13.27 -11.30 -10.26 -4.30 -1.19 1.78 1.99 4.27 8.82 7.89 4.93 4.94 7.29 7.09 7.03 6.76 11.63 9.16 8.48 7.25 7.11 10.26 12.57 14.31 9.84 9.13 7.75 4.80 4.24 4.82 3.53 2.71 2.30 0.40 -0.67 -1.16 -0.87 -1.05 -1.28 -1.89
-23.78 -24.31 -24.87 -19.85 -15.33 -14.40 -16.22 -16.22 -14.56 -14.99 -15.79 -15.19 -13.21 -16.02 -17.31 -10.73 -8.89 -1.76 -0.07 -1.95 3.47 4.03 4.89 5.85 6.89 7.63 7.19 6.34 6.89 7.70 11.12 8.82 9.85 14.96 16.75 18.45 19.45 18.29 11.99 12.48 7.84 5.56 4.75 4.06 3.87 3.20 2.49 0.66 0.35 -0.47 -0.38 -0.27 0.26 -0.42
MSLP
1031.64 1031.20 1030.82 1030.46 1029.98 1029.71 1029.47 1028.79 1028.24 1027.86 1027.50 1027.10 1026.67 1026.36 1025.97 1025.72 1025.54 1026.34 1026.64 1026.47 1026.93 1027.07 1026.46 1026.30 1026.20 1026.20 1026.28 1026.23 1026.21 1025.72 1025.45 1025.34 1025.29 1025.82 1026.65 1026.96 1027.45 1027.29 1028.17 1029.43 1029.84 1030.30 1030.64 1030.46 1029.89 1030.07 1031.18 1030.87 1029.92 1030.52 1031.90 1031.47 1031.27 1030.77
1031.71 1031.33 1031.03 1030.60 1030.12 1029.66 1029.16 1028.61 1028.25 1027.69 1027.17 1026.77 1026.26 1025.93 1025.57 1025.33 1025.21 1025.89 1026.61 1026.43 1026.18 1026.60 1026.17 1025.93 1025.66 1025.61 1025.63 1025.71 1025.98 1025.84 1026.12 1026.06 1026.11 1026.59 1027.39 1027.74 1027.88 1028.33 1029.22 1030.76 1031.53 1032.46 1032.97 1033.00 1032.97 1032.91 1032.85 1032.74 1032.66 1032.66 1032.36 1031.91 1031.55 1031.38
1031.44 1031.07 1030.73 1030.25 1029.76 1029.26 1028.71 1028.17 1027.63 1027.14 1026.70 1026.20 1025.64 1025.49 1025.12 1025.03 1024.97 1025.55 1026.21 1026.33 1026.34 1026.32 1025.91 1025.94 1025.45 1025.32 1025.29 1025.45 1025.54 1026.05 1026.08 1026.19 1026.50 1026.92 1027.55 1028.05 1028.70 1029.33 1030.25 1031.80 1032.76 1033.82 1034.04 1034.15 1034.19 1034.18 1033.96 1033.80 1033.68 1033.62 1033.31 1032.86 1032.41 1031.95
1031.23 1030.79 1030.32 1029.78 1029.26 1028.82 1028.32 1027.72 1027.12 1026.61 1026.16 1025.66 1025.36 1025.00 1024.76 1024.58 1024.76 1025.28 1025.97 1026.13 1026.28 1026.28 1026.16 1025.78 1025.26 1025.41 1025.41 1025.44 1025.50 1025.73 1026.04 1026.33 1026.71 1027.19 1028.09 1028.95 1029.67 1030.39 1031.72 1032.76 1033.85 1035.09 1035.01 1035.53 1035.48 1035.20 1034.73 1034.65 1034.71 1034.61 1034.21 1033.68 1033.27 1032.74
1031.11 1030.57 1029.96 1029.49 1028.94 1028.21 1027.71 1027.21 1026.67 1026.11 1025.63 1025.17 1024.96 1024.53 1024.36 1024.17 1024.52 1025.13 1025.66 1025.58 1025.52 1026.19 1026.13 1025.85 1025.68 1025.85 1025.81 1025.70 1025.90 1026.08 1026.41 1027.09 1027.99 1028.75 1029.51 1030.43 1030.93 1031.69 1032.94 1033.85 1035.28 1035.93 1036.14 1036.33 1036.42 1036.32 1036.29 1035.76 1035.45 1035.20 1034.91 1034.54 1034.16 1033.70
1030.85 1030.26 1029.57 1029.00 1028.42 1027.81 1027.15 1026.64 1026.00 1025.60 1025.01 1024.63 1024.23 1024.07 1023.96 1023.80 1024.57 1025.17 1025.57 1025.69 1025.50 1025.78 1026.27 1026.14 1026.02 1026.21 1026.20 1026.19 1026.42 1026.79 1027.27 1028.21 1029.19 1030.50 1031.39 1032.08 1032.26 1032.60 1033.97 1035.50 1036.31 1036.39 1036.43 1036.71 1036.66 1036.40 1036.30 1036.03 1035.83 1035.57 1035.50 1034.97 1034.42 1034.03
1030.57 1029.96 1029.26 1028.55 1027.84 1027.25 1026.56 1026.09 1025.58 1025.05 1024.47 1024.13 1023.85 1023.64 1023.50 1023.48 1024.63 1024.85 1025.11 1025.16 1025.20 1025.71 1026.15 1026.38 1026.40 1026.67 1026.74 1026.74 1026.99 1027.49 1028.14 1029.48 1030.25 1031.60 1032.57 1033.27 1033.45 1033.62 1035.21 1036.55 1036.83 1036.76 1036.66 1036.62 1036.69 1036.55 1036.42 1036.15 1036.05 1035.55 1035.28 1034.83 1034.48 1034.07
1030.21 1029.49 1028.78 1028.10 1027.41 1026.89 1026.17 1025.70 1025.13 1024.60 1024.11 1023.78 1023.51 1023.19 1022.97 1023.11 1024.14 1024.66 1025.15 1024.86 1025.26 1025.93 1026.62 1027.33 1027.32 1027.33 1027.50 1027.53 1027.73 1027.86 1029.05 1030.09 1031.22 1032.49 1033.56 1034.11 1034.54 1035.14 1036.73 1037.32 1037.22 1036.96 1036.65 1036.64 1036.54 1036.35 1036.19 1035.93 1035.66 1035.38 1035.11 1034.81 1034.58 1034.26
1029.69 1029.11 1028.43 1027.60 1026.94 1026.28 1025.89 1025.40 1024.88 1024.26 1023.95 1023.61 1023.34 1023.17 1023.45 1024.23 1024.71 1025.19 1025.21 1025.46 1025.81 1026.58 1027.61 1028.55 1028.82 1028.61 1028.26 1028.14 1028.10 1028.37 1029.01 1030.76 1031.85 1033.13 1034.22 1034.76 1036.05 1036.93 1037.62 1037.63 1037.41 1037.23 1037.17 1037.00 1036.49 1036.00 1035.79 1035.64 1035.36 1035.06 1034.86 1034.60 1034.50 1034.07
1029.21 1028.59 1027.94 1027.30 1026.62 1026.05 1025.70 1025.19 1024.60 1024.23 1023.95 1023.71 1023.68 1023.86 1024.75 1025.34 1025.08 1025.06 1025.60 1026.16 1026.79 1027.84 1028.58 1029.63 1029.90 1029.53 1029.45 1028.89 1028.74 1029.08 1029.66 1030.82 1032.43 1033.87 1034.49 1035.70 1037.50 1037.79 1037.70 1037.44 1037.24 1036.94 1036.74 1036.56 1036.34 1035.88 1035.56 1035.34 1035.05 1034.82 1034.64 1034.38 1034.09 1033.71
1028.75 1028.15 1027.56 1027.03 1026.46 1025.89 1025.38 1024.91 1024.61 1024.41 1024.28 1024.60 1024.90 1025.44 1025.74 1025.35 1025.53 1026.32 1027.32 1028.09 1028.99 1029.91 1030.45 1030.75 1030.67 1030.38 1029.83 1029.78 1029.52 1029.68 1030.29 1031.18 1032.62 1033.86 1034.76 1036.92 1037.93 1037.78 1037.45 1037.17 1036.90 1036.62 1036.40 1036.22 1036.13 1035.82 1035.61 1035.37 1034.99 1034.80 1034.51 1034.26 1033.97 1033.58
1028.34 1027.77 1027.36 1026.92 1026.44 1025.93 1025.38 1024.93 1024.64 1025.03 1025.08 1025.14 1025.54 1025.94 1026.24 1026.98 1027.48 1028.45 1029.69 1030.11 1030.72 1031.44 1031.42 1031.27 1031.15 1030.85 1030.26 1029.82 1029.85 1030.33 1030.84 1031.63 1033.09 1033.95 1035.25 1037.36 1037.81 1037.55 1037.20 1036.90 1036.68 1036.54 1036.36 1036.21 1036.07 1035.87 1035.63 1035.28 1035.15 1034.95 1034.68 1034.38 1034.10 1033.66
1028.17 1027.68 1027.40 1026.99 1026.64 1025.86 1025.38 1025.08 1024.89 1024.99 1025.21 1025.64 1026.37 1027.66 1028.51 1029.89 1030.56 1031.44 1032.09 1032.14 1032.10 1032.10 1032.21 1032.05 1031.69 1031.27 1030.60 1030.46 1030.76 1031.11 1031.80 1032.91 1033.58 1034.99 1036.77 1037.69 1037.61 1037.28 1037.03 1036.72 1036.47 1036.44 1036.33 1036.22 1036.05 1035.89 1035.70 1035.45 1035.25 1035.04 1034.78 1034.51 1034.18 1033.72
1028.06 1027.70 1027.40 1027.21 1026.58 1025.95 1025.74 1025.44 1025.31 1025.40 1025.87 1027.74 1029.25 1031.25 1032.05 1033.15 1033.72 1034.02 1034.03 1033.73 1033.28 1033.02 1032.88 1032.53 1032.23 1031.96 1031.72 1031.58 1031.77 1032.23 1033.36 1033.74 1035.03 1036.32 1037.40 1037.72 1037.50 1037.22 1036.90 1036.71 1036.57 1036.44 1036.34 1036.28 1036.13 1035.97 1035.79 1035.58 1035.37 1035.17 1034.90 1034.60 1034.23 1033.78
1028.02 1027.74 1027.77 1027.29 1026.71 1026.53 1026.14 1026.02 1025.91 1026.30 1028.22 1030.80 1031.96 1033.88 1034.43 1035.02 1035.14 1035.02 1034.82 1034.42 1034.10 1033.75 1033.37 1032.94 1032.90 1032.93 1032.94 1032.93 1033.20 1033.62 1034.47 1035.60 1036.37 1037.15 1037.49 1037.64 1037.42 1037.22 1037.00 1036.81 1036.69 1036.50 1036.33 1036.25 1036.11 1035.93 1035.72 1035.56 1035.41 1035.25 1034.90 1034.60 1034.25 1033.87
1027.91 1028.01 1028.09 1027.36 1026.97 1026.99 1026.61 1026.63 1027.10 1028.21 1031.29 1033.43 1035.09 1035.59 1035.59 1035.59 1035.94 1035.69 1035.38 1035.05 1034.62 1034.26 1033.80 1033.92 1034.12 1034.41 1034.71 1034.72 1035.00 1035.69 1036.28 1037.19 1037.70 1037.75 1037.77 1037.62 1037.53 1037.44 1037.28 1037.10 1036.87 1036.59 1036.31 1036.16 1035.99 1035.80 1035.58 1035.44 1035.39 1035.22 1034.86 1034.55 1034.28 1033.99
1028.24 1028.83 1028.25 1027.56 1027.23 1027.36 1027.23 1027.75 1029.27 1032.28 1034.49 1036.15 1037.32 1037.20 1036.97 1037.04 1037.15 1036.91 1036.45 1035.87 1035.19 1034.96 1035.19 1035.29 1036.11 1036.39 1036.17 1036.42 1037.02 1037.34 1037.95 1038.18 1038.04 1037.99 1037.90 1037.72 1037.71 1037.60 1037.50 1037.22 1036.95 1036.63 1036.33 1036.07 1035.88 1035.66 1035.52 1035.43 1035.32 1035.10 1034.85 1034.51 1034.23 1033.94
1029.04 1029.02 1028.19 1027.74 1027.65 1027.95 1029.29 1030.34 1032.60 1035.16 1037.62 1038.29 1038.15 1038.16 1037.96 1038.03 1038.01 1037.53 1037.04 1036.32 1035.90 1035.81 1036.30 1037.15 1037.42 1037.98 1038.06 1038.32 1038.60 1038.75 1038.54 1038.46 1038.42 1038.30 1038.04 1037.91 1037.86 1037.85 1037.63 1037.41 1037.10 1036.83 1036.61 1036.29 1036.01 1035.69 1035.48 1035.38 1035.20 1034.92 1034.67 1034.40 1034.13 1033.81
1029.03 1028.84 1028.43 1028.08 1028.12 1029.28 1031.83 1033.86 1034.59 1037.60 1038.61 1038.53 1038.64 1038.66 1038.70 1038.84 1038.58 1038.30 1037.66 1037.07 1036.86 1036.89 1037.45 1038.44 1039.34 1039.69 1039.46 1039.30 1039.27 1039.03 1038.85 1038.82 1038.75 1038.46 1038.16 1038.07 1037.93 1037.97 1037.82 1037.65 1037.43 1037.24 1037.04 1036.73 1036.32 1035.87 1035.65 1035.48 1035.28 1035.01 1034.66 1034.33 1034.09 1033.85
1028.89 1028.97 1028.88 1028.90 1028.55 1031.16 1034.70 1036.39 1036.55 1038.10 1039.28 1039.31 1039.42 1039.84 1039.80 1039.95 1039.69 1039.32 1038.78 1038.22 1038.15 1038.66 1039.68 1040.46 1040.73 1040.49 1040.09 1039.68 1039.52 1039.37 1039.18 1039.18 1039.02 1038.66 1038.35 1038.24 1038.06 1038.10 1037.95 1037.90 1037.76 1037.60 1037.33 1036.96 1036.57 1035.97 1035.96 1035.65 1035.35 1035.08 1034.72 1034.36 1034.21 1033.87
1029.34 1029.55 1029.57 1029.67 1031.86 1033.88 1037.27 1038.99 1039.08 1039.14 1039.48 1040.02 1040.30 1040.63 1041.26 1041.14 1041.34 1041.32 1040.91 1040.26 1040.13 1041.13 1041.46 1041.35 1040.95 1040.48 1040.04 1039.72 1039.58 1039.47 1039.43 1039.41 1039.32 1039.24 1038.87 1038.38 1038.27 1038.28 1038.10 1037.99 1037.83 1037.67 1037.74 1037.44 1036.98 1036.52 1036.12 1035.88 1035.45 1035.06 1034.72 1034.53 1034.24 1033.93
1030.59 1030.33 1031.43 1031.77 1034.43 1036.66 1038.91 1040.24 1040.40 1040.24 1040.43 1041.19 1041.60 1042.11 1042.88 1043.47 1043.36 1043.01 1042.65 1041.95 1042.01 1041.89 1041.65 1041.34 1040.97 1040.59 1040.18 1039.98 1039.82 1039.73 1039.65 1039.57 1039.45 1039.27 1038.97 1038.71 1038.58 1038.33 1038.12 1037.96 1037.77 1037.68 1037.52 1037.23 1036.85 1036.54 1036.08 1035.68 1035.20 1034.65 1034.54 1034.37 1034.16 1033.91
1031.16 1031.63 1033.76 1035.20 1037.16 1039.31 1041.56 1041.16 1041.54 1042.33 1042.60 1043.14 1043.19 1044.22 1044.83 1044.94 1044.28 1043.77 1044.28 1043.67 1042.53 1041.93 1041.54 1041.37 1041.09 1040.75 1040.49 1040.27 1040.05 1039.94 1039.84 1039.76 1039.64 1039.46 1039.17 1038.96 1038.73 1038.41 1038.08 1037.81 1037.64 1037.51 1037.15 1036.67 1036.46 1036.24 1035.88 1035.19 1034.90 1034.49 1034.34 1034.31 1034.12 1033.85
1032.86 1035.79 1038.16 1040.03 1040.76 1042.54 1042.54 1043.38 1043.68 1044.29 1044.47 1044.99 1045.55 1046.20 1046.16 1046.00 1045.09 1045.44 1045.36 1043.91 1042.77 1042.06 1041.69 1041.54 1041.33 1040.99 1040.69 1040.48 1040.32 1040.10 1039.88 1039.74 1039.60 1039.30 1039.06 1038.89 1038.60 1038.16 1037.93 1037.64 1037.33 1037.11 1036.77 1036.34 1036.11 1035.79 1035.45 1035.09 1034.51 1034.43 1034.27 1034.18 1033.94 1033.78
1035.54 1040.38 1041.53 1042.91 1043.26 1043.64 1044.70 1045.41 1045.69 1045.81 1046.86 1046.98 1047.31 1047.30 1046.86 1046.78 1046.60 1046.45 1045.54 1043.92 1042.77 1042.37 1041.91 1041.72 1041.55 1041.33 1041.09 1040.71 1040.35 1040.07 1039.79 1039.70 1039.58 1039.36 1038.77 1038.63 1038.43 1038.04 1037.66 1037.30 1036.87 1036.42 1035.97 1035.87 1035.57 1035.27 1034.92 1034.60 1034.33 1034.11 1033.97 1033.89 1033.66 1033.44
1040.15 1042.72 1043.32 1044.06 1044.57 1044.96 1045.91 1046.59 1047.15 1047.34 1047.39 1047.68 1047.65 1047.37 1047.27 1047.15 1047.13 1046.32 1044.73 1043.47 1042.86 1042.43 1041.99 1041.81 1041.72 1041.38 1041.00 1040.76 1040.39 1039.95 1039.65 1039.54 1039.47 1039.23 1038.51 1038.30 1038.15 1037.98 1037.66 1037.32 1036.69 1035.77 1035.27 1035.18 1034.95 1034.57 1034.19 1033.89 1033.69 1033.49 1033.37 1033.16 1033.02 1033.15
1042.74 1044.33 1044.38 1044.00 1044.45 1045.20 1046.23 1046.80 1047.10 1047.17 1047.65 1047.58 1047.44 1047.41 1047.51 1047.28 1046.73 1045.11 1043.69 1042.98 1042.73 1042.29 1042.10 1041.91 1041.73 1041.51 1041.13 1040.61 1040.16 1039.77 1039.54 1039.37 1039.32 1038.95 1038.29 1037.88 1037.53 1037.31 1037.24 1036.98 1036.24 1035.35 1034.85 1034.42 1034.04 1033.69 1033.30 1032.95 1032.70 1032.58 1032.56 1032.62 1032.80 1032.99
1043.73 1044.57 1044.97 1045.57 1045.51 1046.05 1046.70 1047.25 1047.43 1047.51 1046.98 1046.77 1046.80 1046.96 1046.82 1046.22 1045.31 1043.89 1043.07 1042.55 1042.36 1042.25 1042.08 1041.68 1041.40 1041.19 1040.92 1040.49 1040.11 1039.72 1039.28 1039.02 1038.74 1038.22 1037.60 1037.07 1036.61 1036.69 1036.46 1036.07 1035.59 1034.58 1033.83 1033.81 1033.06 1032.60 1032.31 1032.04 1031.77 1031.80 1032.09 1032.31 1032.57 1032.78
1044.84 1045.32 1045.50 1046.50 1046.67 1046.95 1047.54 1047.64 1047.77 1047.20 1046.55 1046.58 1046.78 1046.31 1045.82 1044.87 1043.71 1043.26 1042.61 1042.33 1042.28 1042.28 1042.01 1041.59 1041.09 1040.84 1040.53 1040.14 1039.72 1039.38 1039.10 1039.00 1039.01 1038.42 1037.91 1037.32 1036.61 1035.96 1035.64 1035.29 1034.86 1034.36 1033.89 1033.42 1032.65 1032.13 1031.68 1031.23 1031.38 1031.64 1031.96 1032.26 1032.39 1032.55
1046.11 1046.18 1046.63 1047.56 1047.70 1048.16 1048.13 1048.02 1047.98 1047.33 1046.78 1046.44 1046.49 1046.06 1045.45 1044.45 1043.40 1042.85 1042.65 1042.47 1042.30 1042.17 1041.89 1041.59 1041.14 1040.82 1040.50 1040.11 1039.66 1039.14 1038.77 1038.57 1038.64 1038.60 1038.03 1037.31 1036.62 1035.65 1035.30 1034.89 1034.42 1033.94 1033.64 1033.43 1033.13 1032.85 1032.19 1032.21 1032.20 1032.02 1032.10 1032.21 1032.21 1032.29
1046.71 1046.93 1047.49 1047.85 1048.42 1048.52 1048.73 1048.77 1048.46 1047.76 1047.32 1047.17 1047.04 1046.99 1046.20 1045.29 1043.98 1042.89 1042.68 1042.43 1042.21 1041.98 1041.67 1041.20 1040.85 1040.51 1040.21 1039.90 1039.66 1039.22 1038.61 1038.25 1038.08 1037.75 1037.13 1036.49 1035.70 1035.09 1034.87 1034.53 1034.16 1034.06 1034.12 1033.87 1033.59 1033.34 1033.10 1032.91 1032.81 1032.70 1032.58 1032.50 1032.41 1032.39
1047.42 1048.24 1048.73 1048.81 1049.01 1048.77 1049.01 1049.17 1048.74 1048.18 1047.87 1047.70 1047.64 1047.53 1046.54 1046.01 1045.10 1043.48 1042.66 1042.52 1042.37 1042.03 1041.60 1041.24 1040.83 1040.30 1039.97 1039.75 1039.47 1039.20 1038.24 1038.15 1037.77 1037.48 1036.88 1035.82 1034.70 1034.25 1034.64 1034.37 1034.27 1034.44 1034.36 1034.12 1033.88 1033.70 1033.53 1033.45 1033.32 1033.13 1032.93 1032.73 1032.55 1032.42
1048.74 1049.05 1049.44 1049.28 1049.29 1049.32 1049.35 1049.44 1048.98 1048.44 1048.16 1047.90 1047.86 1047.52 1047.11 1046.77 1045.60 1043.74 1042.68 1042.77 1042.38 1042.13 1041.67 1041.16 1040.60 1040.12 1039.77 1039.56 1039.19 1038.87 1038.23 1038.13 1037.64 1036.69 1035.85 1034.92 1034.25 1033.97 1034.40 1034.07 1034.34 1034.45 1034.43 1034.22 1034.03 1033.88 1033.77 1033.69 1033.59 1033.37 1033.12 1032.85 1032.60 1032.41
Wind_Speed
14 16 17 18 18 17 18 18 18 16 18 16 16 15 15 12 12 4 2 3 3 3 5 4 2 3 2 1 0 4 3 2 2 3 1 2 1 2 4 2 2 2 2 3 3 2 2 14 3 6 4 5 7 9
15 17 17 17 19 19 20 19 19 17 20 17 16 15 14 11 9 6 0 2 2 3 4 3 4 3 3 2 2 1 2 2 1 1 1 1 1 2 4 1 2 1 3 3 2 3 2 4 7 6 7 6 9 10
15 14 16 17 18 19 21 19 20 19 19 20 17 14 13 10 9 5 2 2 1 2 3 2 3 4 2 1 2 2 1 0 2 1 3 1 2 3 0 2 3 1 2 3 1 3 1 5 5 8 7 7 9 10
17 17 17 18 19 20 19 19 20 22 21 20 19 14 12 11 7 7 3 2 2 2 3 4 1 3 2 3 3 1 2 1 1 1 2 2 2 4 2 3 3 1 3 1 1 4 3 2 4 5 7 7 9 9
18 19 18 18 19 22 19 19 22 22 20 21 18 15 11 9 1 4 2 2 3 2 2 3 2 2 3 3 6 5 4 3 2 3 3 3 2 3 2 3 3 2 1 2 2 3 3 5 4 6 5 5 6 6
18 20 19 18 18 22 22 19 20 19 22 20 16 17 10 8 8 3 1 2 1 2 1 2 0 3 5 2 6 6 3 3 4 4 2 2 4 2 3 3 2 2 1 3 2 3 4 7 5 3 3 6 6 4
20 21 22 23 21 21 23 22 21 18 21 19 19 15 13 9 3 3 4 3 5 2 2 2 0 3 3 2 2 3 4 2 4 2 3 2 3 4 3 3 4 5 4 2 2 2 3 2 4 8 4 7 8 5
21 22 23 24 24 21 23 21 21 20 19 19 16 16 11 1 6 2 3 3 5 3 3 1 2 2 5 3 2 2 2 3 5 3 3 3 2 3 4 3 3 4 4 2 7 2 4 5 4 5 3 4 6 7
21 22 23 25 20 23 19 17 18 20 18 16 12 5 5 4 2 0 9 11 3 3 3 2 2 2 5 2 1 1 1 3 2 3 1 2 2 4 2 2 3 3 1 5 7 5 3 3 5 5 5 6 4 7
21 22 24 23 23 19 15 16 21 17 13 8 4 3 2 1 6 7 3 2 5 4 4 3 0 3 3 3 2 2 2 2 3 2 3 5 0 3 3 4 4 5 4 2 4 6 6 6 7 6 6 5 5 6
23 23 23 23 22 21 15 19 18 12 7 4 3 2 2 6 2 3 3 4 3 4 3 2 1 2 2 1 2 2 1 1 4 2 3 2 2 3 4 3 3 5 4 3 3 4 5 6 5 7 8 8 8 9
23 22 24 21 14 19 19 17 15 4 0 2 2 2 3 5 4 6 2 3 5 2 3 3 3 2 3 2 1 2 2 3 2 2 4 3 3 3 3 4 3 4 5 6 5 6 6 7 6 6 7 7 8 9
24 22 21 13 18 19 18 17 13 6 4 3 4 6 5 5 10 7 7 4 3 3 4 3 3 3 2 3 1 2 4 2 3 5 3 2 2 3 3 5 5 5 5 6 6 6 6 6 6 5 6 6 7 7
21 21 13 15 20 18 16 12 10 5 5 5 6 8 6 5 4 4 3 4 3 4 6 4 2 3 2 2 2 4 3 3 4 4 1 2 2 4 3 3 5 7 6 6 6 6 6 6 6 5 5 5 6 6
21 15 10 13 18 16 12 11 10 5 5 6 6 6 4 3 3 3 4 4 4 4 5 3 1 2 3 3 4 3 5 4 4 2 2 2 4 6 5 6 5 7 5 4 3 4 5 5 5 5 5 5 5 5
18 4 7 20 16 13 8 7 6 4 6 6 8 5 5 2 5 4 3 3 3 5 3 2 2 4 5 3 4 5 3 4 3 2 3 4 2 4 5 7 7 6 5 4 4 4 5 4 4 5 6 5 5 5
7 3 17 16 10 7 15 5 5 8 6 6 4 6 3 2 2 4 3 4 4 2 2 3 6 3 2 4 4 4 3 3 4 4 4 5 4 5 6 5 6 6 5 4 4 5 4 3 4 4 5 5 6 5
2 5 15 15 4 5 4 6 6 7 7 2 4 2 3 1 3 3 5 4 4 3 3 2 3 6 4 3 3 2 2 3 4 5 5 4 4 4 6 5 7 6 7 7 6 5 3 3 3 3 5 5 5 5
2 7 13 13 6 5 5 6 5 6 2 1 2 2 2 2 3 4 5 6 2 2 4 5 6 3 3 3 3 5 5 3 5 6 4 3 2 5 6 5 6 5 6 5 5 4 3 4 4 4 4 4 4 5
5 12 14 15 7 6 7 5 4 6 2 2 2 2 1 2 4 4 7 7 4 4 7 5 3 3 2 2 2 4 4 3 4 5 5 5 4 4 5 4 3 5 4 4 4 7 2 3 3 4 5 5 6 6
7 7 12 6 6 8 6 3 5 3 2 3 1 2 1 3 4 5 5 5 6 4 3 2 3 4 5 2 3 3 3 2 3 2 4 4 3 3 3 3 3 2 1 2 3 4 6 3 4 4 4 3 4 4
2 9 4 7 7 6 6 3 3 2 3 1 3 2 4 3 4 3 3 6 3 1 2 2 4 5 5 4 5 4 4 5 5 4 8 6 4 4 4 4 4 3 3 3 3 3 4 4 5 3 3 4 5 4
6 6 6 7 8 8 3 3 6 7 4 3 4 5 4 3 3 2 4 2 1 2 3 4 5 6 5 4 4 4 3 4 3 4 5 4 4 4 4 4 4 4 5 4 2 3 4 8 8 7 3 5 4 5
10 9 7 5 6 0 3 6 3 4 4 5 4 3 4 3 4 5 1 2 2 4 4 6 4 4 3 4 2 3 4 2 4 4 4 3 4 4 3 5 4 4 5 5 4 4 4 5 9 5 4 5 5 5
11 10 7 7 4 7 7 6 6 6 3 3 3 4 4 4 4 3 1 3 2 3 4 3 3 3 3 3 4 4 5 2 3 6 6 3 4 4 5 4 4 5 3 2 3 4 6 5 5 5 5 5 7 8
9 5 5 2 4 4 0 3 2 1 1 4 1 3 3 4 5 2 3 2 2 2 4 4 3 4 5 3 6 6 5 4 3 4 5 2 3 4 4 4 5 6 2 3 5 7 8 7 7 7 7 9 13 6
6 4 3 2 1 3 4 3 2 4 3 2 3 4 4 5 3 4 3 1 2 2 3 4 3 3 5 7 6 5 5 4 4 6 8 6 5 4 4 4 6 6 6 8 8 8 9 9 8 8 7 4 3 3
3 1 3 3 3 2 5 3 2 1 2 2 1 4 4 5 4 3 3 2 2 2 3 3 3 3 4 5 5 5 5 3 5 5 5 4 4 3 5 5 6 17 10 7 8 6 6 7 8 5 3 2 2 1
3 2 2 4 3 4 1 3 3 2 1 2 3 1 3 3 3 2 2 1 0 1 3 5 5 2 4 4 4 3 3 2 3 6 8 7 7 4 2 5 6 7 6 6 13 13 11 7 5 2 0 2 2 1
2 1 4 2 3 0 3 2 2 2 1 1 1 3 3 3 3 2 1 1 2 3 3 4 4 3 4 4 6 6 3 2 3 3 4 7 7 9 8 7 7 6 5 5 6 6 11 5 7 4 3 3 3 2
1 2 4 2 2 3 3 2 3 2 2 2 2 2 3 4 5 2 2 2 2 3 4 4 6 4 4 6 5 6 6 2 3 7 7 7 9 8 6 5 5 3 3 3 4 4 4 4 4 4 5 5 7 6
3 3 3 2 2 3 3 3 1 1 3 3 2 1 4 4 3 4 2 1 2 3 8 7 6 8 7 5 4 4 10 5 6 7 10 8 7 1 2 3 2 2 3 3 3 4 4 4 4 5 5 6 6 5
2 2 2 3 4 4 3 3 5 5 3 3 2 1 2 2 4 4 2 2 2 3 4 5 6 7 7 7 6 6 9 6 11 17 18 17 17 12 4 3 2 2 3 3 3 3 5 4 4 5 6 6 5 5
Wind_Direction
337 335 340 330 322 323 326 327 321 331 326 325 330 330 327 330 340 133 221 199 144 196 269 196 234 185 330 238 188 285 355 328 10 56 24 284 139 258 84 37 19 79 31 11 304 89 152 344 19 69 331 333 353 355
339 336 329 327 326 325 319 321 326 321 319 316 325 324 326 324 346 122 174 242 154 251 245 216 225 248 222 255 211 297 202 245 300 117 214 212 285 30 169 250 23 278 170 144 127 156 47 31 61 26 5 352 352 348
329 324 324 321 318 314 321 324 316 316 312 316 313 320 324 317 325 147 175 194 96 274 287 3 206 186 128 211 208 134 296 206 10 185 166 234 90 317 338 83 114 85 14 110 97 343 335 62 54 26 3 356 345 344
334 331 325 324 327 324 318 318 318 311 317 312 312 320 315 308 326 147 154 172 116 287 280 280 346 103 131 40 74 132 189 79 70 335 98 70 90 20 73 84 76 298 345 10 319 330 12 294 44 346 344 351 352 344
330 327 326 330 323 317 321 320 324 322 319 315 310 315 304 320 69 117 153 204 166 181 251 273 323 130 17 78 76 55 76 85 59 49 44 51 61 86 56 84 39 344 255 100 196 231 202 263 281 318 330 330 324 329
330 325 328 324 321 320 321 318 321 325 317 320 317 314 305 317 139 98 258 254 200 122 101 298 106 32 8 56 76 70 72 68 84 104 73 32 345 86 88 82 275 345 305 196 259 256 219 271 285 273 293 308 303 320
327 326 325 327 324 325 325 324 321 322 317 315 318 327 320 314 121 153 189 196 168 152 233 284 182 30 346 357 41 71 43 88 97 122 60 83 22 50 68 76 312 331 319 299 306 299 358 344 292 317 296 301 315 286
325 325 327 324 330 327 332 330 334 331 325 329 330 322 307 292 122 78 353 76 111 93 20 94 292 59 11 344 13 72 62 34 15 143 37 77 33 59 62 268 296 331 342 35 345 318 236 284 305 319 289 321 334 330
328 325 327 324 330 333 338 339 330 331 341 337 339 17 67 42 60 129 107 72 47 76 113 64 28 318 352 356 341 47 67 65 196 81 55 80 8 51 252 281 332 320 264 277 314 333 340 338 316 329 331 329 319 322
329 326 327 333 336 340 329 334 332 348 341 353 41 52 50 19 293 125 37 37 25 12 31 69 187 315 348 353 321 4 46 102 68 297 82 63 10 266 268 257 265 289 278 304 354 346 344 350 340 349 332 314 314 325
327 330 333 336 340 337 333 335 355 346 18 34 32 62 273 321 66 36 57 56 1 32 15 341 20 321 345 24 304 35 143 118 79 73 93 45 10 276 327 335 338 340 339 357 321 331 351 324 337 345 340 344 343 335
327 338 339 341 349 346 336 345 357 43 131 123 112 62 31 31 33 75 10 26 38 44 358 344 329 309 299 282 350 351 90 47 109 95 75 56 266 275 326 331 347 360 356 357 351 352 347 345 356 336 336 340 337 328
340 341 343 351 346 347 349 355 357 43 82 47 48 47 38 328 43 40 0 353 11 2 22 334 322 320 294 29 35 18 67 66 92 46 76 194 302 343 334 345 358 358 358 359 355 358 347 349 341 343 337 336 324 324
342 341 353 353 348 355 2 6 16 58 60 66 57 29 70 8 47 19 333 321 336 342 328 309 278 344 357 4 358 70 47 53 60 56 137 273 285 313 327 354 352 350 357 351 342 344 343 342 338 333 339 328 327 330
338 351 18 345 2 6 9 33 44 46 59 58 47 41 59 70 15 343 333 320 340 310 315 311 47 13 10 37 17 43 43 56 48 44 52 357 342 353 10 356 346 336 329 325 314 316 321 324 330 324 330 326 330 330
345 37 352 348 359 14 15 39 31 63 50 61 39 13 10 15 354 342 326 305 332 316 299 29 33 53 36 20 43 28 56 43 23 335 12 319 20 348 342 342 332 323 321 320 317 313 320 330 332 314 314 330 335 331
36 34 334 349 8 38 27 66 49 48 83 49 23 16 13 29 274 308 311 306 301 3 38 43 50 7 1 46 44 25 34 358 342 347 338 343 2 348 333 329 332 333 334 322 312 321 319 329 327 340 344 325 329 328
50 306 355 356 45 50 36 35 76 69 64 353 75 327 43 8 317 319 327 321 355 19 49 90 51 37 39 52 36 355 345 341 348 337 323 333 345 350 338 329 335 351 353 349 343 316 293 322 326 337 319 316 317 323
293 16 11 14 53 82 66 21 56 88 99 99 34 1 50 346 336 354 351 4 24 23 75 39 56 41 22 37 351 342 344 358 335 327 317 4 324 356 337 340 343 346 340 332 332 326 18 358 352 342 328 337 341 327
25 27 16 33 46 72 56 8 43 82 115 195 65 9 79 77 347 352 10 13 22 53 36 46 29 357 331 334 344 330 336 356 331 337 340 338 331 338 341 337 334 332 327 335 334 1 33 347 334 332 313 349 343 325
37 353 20 51 43 63 88 2 39 129 162 96 267 56 329 7 15 3 6 349 42 55 38 19 330 330 327 358 340 339 335 326 328 288 290 292 350 323 313 309 300 303 318 304 312 320 346 294 295 301 291 298 301 311
324 20 53 20 69 39 73 339 104 313 70 190 39 40 33 25 338 334 299 41 50 16 357 321 339 334 341 5 350 356 347 344 327 314 334 348 327 327 321 311 316 297 294 274 273 284 295 292 290 275 291 290 331 301
30 39 41 24 65 46 285 9 62 358 73 334 20 37 3 354 267 331 50 245 321 6 357 358 337 330 335 338 333 341 338 336 318 311 313 302 291 291 290 296 288 284 293 287 242 273 284 302 318 313 314 322 301 300
36 52 50 51 42 8 360 20 26 32 33 28 39 18 348 309 330 49 72 304 331 357 356 351 331 326 328 339 330 309 316 285 296 298 286 289 299 293 276 290 282 264 252 270 279 276 272 276 307 313 297 292 290 279
65 349 61 2 340 48 33 14 356 39 40 335 52 353 327 357 58 43 259 278 311 318 332 325 319 309 299 274 285 293 306 289 301 307 300 253 276 293 302 289 275 265 250 254 278 281 284 282 283 281 280 276 273 279
67 315 74 212 327 77 209 55 24 328 51 22 319 277 15 73 56 280 254 261 282 282 326 332 323 314 312 289 305 315 318 315 302 278 282 249 266 271 274 297 312 307 236 244 278 282 283 282 275 270 275 283 310 340
61 333 324 23 113 98 69 42 50 88 61 32 293 6 51 53 281 260 270 245 261 277 322 304 282 278 289 305 305 299 297 288 244 268 288 287 273 249 242 257 282 279 304 286 277 273 277 281 281 276 274 272 265 255
147 93 99 294 53 13 123 71 76 106 255 254 36 26 136 188 243 243 220 240 235 315 293 286 270 266 285 291 293 299 299 297 303 295 285 267 258 251 241 250 255 292 311 309 296 290 277 275 278 290 283 274 280 230
54 343 96 29 18 36 124 142 191 232 298 122 126 263 252 232 234 244 277 248 215 326 331 333 326 318 294 283 282 278 278 304 2 338 341 333 328 305 291 301 301 295 294 295 314 332 321 329 10 123 310 308 301 232
310 350 88 62 89 348 253 178 225 263 264 196 263 311 300 285 262 264 284 300 305 304 296 290 294 313 310 321 317 327 308 228 201 220 292 305 295 294 307 303 302 306 317 328 336 333 345 28 359 356 357 335 323 304
20 65 67 56 148 249 237 304 311 297 17 358 324 176 253 301 307 267 241 249 289 303 318 322 331 322 315 327 329 322 323 298 287 290 282 282 280 290 299 288 299 324 349 351 348 349 356 348 352 354 356 355 343 5
20 80 119 84 293 291 24 47 3 43 330 24 306 334 328 15 321 292 269 126 343 329 337 344 329 325 323 310 294 273 301 313 317 306 294 290 291 332 313 303 348 38 10 4 354 356 359 360 346 354 347 346 346 347
49 49 47 64 20 6 330 55 15 349 12 12 314 265 224 179 245 274 291 199 226 278 309 312 306 305 303 300 294 305 337 325 325 347 339 350 350 13 16 335 92 55 25 5 354 349 4 355 347 348 346 344 345 347